This demonstration page uses our WeatherBlox Daily Observations layout. Learn more.

38.88101, -77.10428

Hourly Observations for August 28, 2016

Temp ( °F °C ) Dew Point ( °F °C ) Humidity (%) Winds ( mph kmh ) Pressure ( in mb ) Visibility ( mi km ) Precip ( " mm )
12:52 am 00:52 Mostly Clear 78 25.6 69 20.6 74 74 SSE 6 9 30.21 1023 10 16.09344 0 0
1:52 am 01:52 Mostly Clear 76 24.4 69 20.6 79 79 S 5 7 30.18 1022 10 16.09344 0 0
2:52 am 02:52 Partly Cloudy 75 23.9 71 21.7 88 88 SSE 6 9 30.18 1022 10 16.09344 0 0
3:52 am 03:52 Partly Cloudy 76 24.4 72 22.2 88 88 Calm 30.21 1023 10 16.09344 0 0
4:52 am 04:52 Partly Cloudy 75 23.9 71 21.7 88 88 NE 3 6 30.21 1023 10 16.09344 0 0
5:14 am 05:14 Cloudy 75 24 72 22 89 89 N 6 9 30.24 1024 10 16.09344 0 0
5:52 am 05:52 Mostly Cloudy 75 23.9 71 21.7 88 88 NE 5 7 30.21 1023 10 16.09344 0 0
6:52 am 06:52 Mostly Cloudy 75 23.9 71 21.7 88 88 ENE 6 9 30.24 1024 10 16.09344 0 0
7:52 am 07:52 Mostly Cloudy 75 23.9 71 21.7 88 88 ENE 8 13 30.24 1024 10 16.09344 0 0
8:13 am 08:13 Partly Cloudy 76 24.4 72 22.2 88 88 ENE 7 11 30.24 1024 10 16.09344 0 0
8:52 am 08:52 Partly Cloudy 77 25 72 22.2 85 85 ENE 7 11 30.27 1025 10 16.09344 0 0
9:52 am 09:52 Partly Cloudy 80 26.7 72 22.2 76 76 ENE 6 9 30.27 1025 10 16.09344 0 0
10:52 am 10:52 Partly Cloudy 82 27.8 69 20.6 65 65 E 5 7 30.27 1025 10 16.09344 0 0
11:52 am 11:52 Partly Cloudy 86 30 68 20 55 55 N 3 6 30.24 1024 10 16.09344 0 0
12:52 pm 12:52 Mostly Sunny 87 30.6 65 18.3 48 48 N 3 6 30.24 1024 10 16.09344 0 0
1:52 pm 13:52 Mostly Sunny 88 31.1 63 17.2 43 43 Calm 30.21 1023 10 16.09344 0 0
2:52 pm 14:52 Mostly Sunny 90 32.2 59 15 35 35 N 3 6 30.21 1023 10 16.09344 0 0
3:52 pm 15:52 Mostly Sunny 89 31.7 60 15.6 38 38 SE 9 15 30.18 1022 10 16.09344 0 0
4:52 pm 16:52 Partly Cloudy 88 31.1 64 17.8 45 45 ESE 9 15 30.15 1021 10 16.09344 0 0
5:52 pm 17:52 Partly Cloudy 87 30.6 65 18.3 48 48 E 8 13 30.15 1021 10 16.09344 0 0
6:52 pm 18:52 Partly Cloudy 85 29.4 65 18.3 51 51 ESE 12 19 30.15 1021 10 16.09344 0 0
7:52 pm 19:52 Partly Cloudy 83 28.3 66 18.9 57 57 SE 7 11 30.15 1021 10 16.09344 0 0
8:52 pm 20:52 Mostly Clear 82 27.8 65 18.3 56 56 SE 5 7 30.15 1021 10 16.09344 0 0
9:52 pm 21:52 Clear 80 26.7 66 18.9 62 62 ESE 5 7 30.18 1022 10 16.09344 0 0
10:52 pm 22:52 Mostly Clear 79 26.1 66 18.9 65 65 SE 5 7 30.21 1023 10 16.09344 0 0
11:52 pm 23:52 Mostly Clear 77 25 66 18.9 69 69 S 3 6 30.21 1023 10 16.09344 0 0

Powered by AerisWeather